[[{"header":{"parameterUnit":"m.s-1","parameterCategory":1,"la1":30.2991,"la2":30.254,"lo1":-89.0895,"lo2":-89.0444,"dy":0.0017,"dx":0.0017,"nx":28,"ny":28,"refTime":"2024-08-12T21:00:00:Z","depth":0,"parameterNumber":2,"parameterNumberName":"U-component_of_WINDS"},"data":[0,0,0,0,0,0,0,0,0,0,0,0,0,0,0,0,0,0,0,0,0,0,0,0,0,0,0,0,0,0,0,0,0,0,0,0,0,0,0,0,0,0,0,0,0,0,0,0,0,0,0,0,0,0,0,0,0,0,3.3851,3.3852,0,3.3954,3.3955,3.3956,3.3907,3.3904,3.3902,3.3899,3.4005,3.4011,3.4016,0,0,0,0,0,0,0,0,0,0,0,0,0,3.3612,3.3617,3.3851,3.3852,3.3853,3.3954,3.3955,3.3956,3.3907,3.3904,3.3901,3.3898,3.4004,3.401,3.4016,0,0,0,0,0,0,0,0,0,0,0,0,0,3.3716,3.3619,3.385,3.3841,3.3841,3.3953,3.3955,3.3957,3.3908,3.3904,3.39,3.3897,3.4002,3.4009,3.4017,3.4145,0,0,3.4041,3.4045,0,0,0,0,0,0,0,0,3.371,3.3725,3.3841,3.3842,3.3842,3.3913,3.391,3.402,3.3909,3.3883,3.3899,3.3895,3.3978,3.3988,3.4016,3.415,3.4154,3.4042,3.4047,3.405,3.4052,0,0,0,0,0,0,0,3.3703,3.372,3.3891,3.3843,3.3843,3.3832,3.3842,3.393,3.3951,3.3885,3.3881,3.3894,3.3978,3.4008,3.4018,3.4156,3.4042,3.4049,3.4054,3.4057,3.4402,3.4406,0,0,0,0,0,0,3.3696,3.3714,3.3888,3.3894,3.3765,3.3839,3.3851,3.3895,3.395,3.3955,3.3897,3.3892,3.3997,3.4009,3.4021,3.4176,3.405,3.4058,3.4062,3.4397,3.4403,3.4407,0,0,0,0,0,0,3.3691,3.3712,3.3884,3.3804,3.3825,3.3848,3.3897,3.3899,3.3929,3.396,3.3963,3.3925,3.3994,3.401,3.4115,3.4179,3.4061,3.4068,3.4392,3.4399,3.4405,3.4485,0,0,0,0,0,0,3.3684,3.371,3.3759,3.3805,3.3829,3.3976,3.3901,3.3904,3.3943,3.3936,3.3986,3.3991,3.3992,3.4103,3.4123,3.4187,3.4075,3.4386,3.4395,3.4403,3.4476,3.4493,3.4507,0,0,0,0,0,3.3676,3.3777,3.3762,3.3783,3.389,3.3979,3.3993,3.3992,3.3948,3.3997,3.4017,3.3989,3.4168,3.4114,3.4136,3.4204,3.4382,3.4393,3.4402,3.4469,3.449,3.4507,0,0,0,0,0,0,3.3738,3.3783,3.3766,3.3885,3.3929,3.3971,3.4033,3.4014,3.4071,3.4062,3.4059,3.4071,3.4179,3.4202,3.4141,3.4331,3.4269,3.4283,3.4312,3.4332,3.4347,3.434,3.4081,0,0,0,0,0,3.3765,3.3834,3.3869,3.3971,3.3994,3.401,3.4049,3.4044,3.4089,3.4108,3.4135,3.418,3.4247,3.429,3.4353,3.4479,3.449,3.4537,3.4552,3.4565,3.4578,3.4647,3.4669,3.444,3.444,3.444,0,0,3.3823,3.3856,3.3899,3.3984,3.4018,3.4089,3.4026,3.4104,3.4157,3.4119,3.422,3.4242,3.4292,3.4409,3.4461,3.4431,3.4643,3.4578,3.4587,3.4594,3.466,3.4682,3.4701,3.4447,3.4446,3.4444,0,0,3.3964,3.3996,3.4084,3.4119,3.417,3.4181,3.4202,3.4247,3.426,3.4361,3.4335,3.4399,3.4513,3.455,3.4584,3.4741,3.4718,3.4761,3.4843,3.4911,3.4929,3.4945,3.5002,3.5022,3.4774,3.4774,3.4774,0,3.4029,3.4136,3.4132,3.4213,3.4252,3.4221,3.4311,3.4345,3.4414,3.4442,3.4407,3.4551,3.4582,3.4707,3.4746,3.4774,3.4799,3.4756,3.4926,3.4942,3.4957,3.5011,3.5033,3.4779,3.4779,3.4778,3.4778,0,3.4214,3.4288,3.4353,3.4422,3.4467,3.4552,3.4562,3.4609,3.4601,3.4615,3.4719,3.4756,3.4826,3.4855,3.4848,3.498,3.496,3.4926,3.4863,3.4984,3.5035,3.5056,3.4786,3.4785,3.4783,3.4782,0,0,3.4397,3.4463,3.4487,3.4518,3.4572,3.463,3.4714,3.4783,3.4824,3.4872,3.4944,3.5041,3.501,3.5049,3.5046,3.5105,3.5228,3.5064,3.5065,3.5094,3.5378,3.5404,3.5428,3.5213,3.5217,3.522,3.5374,0,3.4544,3.469,3.469,3.4826,3.4895,3.4867,3.4941,3.4983,3.4998,3.5059,3.5076,3.5146,3.5099,3.5123,3.518,3.5201,3.5285,3.519,3.528,3.5283,3.5269,3.5454,3.5482,3.5625,3.5394,3.5397,3.5399,0,3.4734,3.4789,3.4932,3.4978,3.5007,3.5073,3.5136,3.5195,3.5242,3.5249,3.5293,3.528,3.5367,3.5301,3.542,3.5356,3.5392,3.5408,3.5414,3.5423,3.5349,3.5469,3.5671,3.5693,3.5431,3.5428,3.5426,0,3.4855,3.4965,3.5065,3.5092,3.5148,3.5195,3.522,3.5263,3.5305,3.536,3.5388,3.5453,3.5488,3.5539,3.5545,3.5497,3.5666,3.56,3.5675,3.5675,3.5713,3.571,3.5924,3.5735,3.5735,3.5734,3.5734,0,3.5019,3.5108,3.512,3.5182,3.5281,3.528,3.5378,3.5399,3.5438,3.5504,3.5484,3.5546,3.5549,3.5614,3.5619,3.5718,3.5734,3.5743,3.5743,3.5745,3.5744,3.577,3.576,3.574,3.5739,3.5738,3.5737,0,3.5171,3.5183,3.5291,3.5334,3.5347,3.5418,3.5456,3.5515,3.5528,3.5612,3.5632,3.5653,3.5728,3.5739,3.5826,3.5829,3.5948,3.5938,3.5933,3.5931,3.6006,3.5999,3.6244,3.6277,3.6066,3.6068,3.6069,0,3.5276,3.5344,3.5394,3.5437,3.5465,3.5533,3.5576,3.5577,3.5623,3.5682,3.5735,3.5807,3.5865,3.5985,3.6009,3.6076,3.6068,3.6149,3.6078,3.6078,3.6071,3.6067,3.6074,3.6163,3.6166,3.6167,3.6169,0,3.546,3.5463,3.5525,3.559,3.5641,3.5692,3.5739,3.5776,3.5783,3.5835,3.5911,3.5956,3.6046,3.6118,3.6185,3.6211,3.6193,3.6191,3.6212,3.6215,3.621,3.6215,3.5971,3.6186,3.6184,3.6183,3.6182,3.6181,3.5593,3.5652,3.5698,3.5767,3.5803,3.5849,3.5907,3.5928,3.5991,3.6064,3.6061,3.6145,3.6191,3.6278,3.6309,3.6375,3.6349,3.6379,3.6387,3.6395,3.6403,3.6199,3.6387,3.6387,3.6386,3.6386,3.6386,0,3.5778,3.5805,3.5869,3.5937,3.5993,3.5969,3.6021,3.6069,3.6143,3.6187,3.6245,3.6333,3.6403,3.6433,3.6502,3.655,3.6543,3.6568,3.6565,3.6572,3.6422,3.6397,3.6572,3.6572,3.6572,3.6572,3.6572,3.6572,3.588,3.598,3.5988,3.6105,3.6132,3.6214,3.6246,3.6288,3.6324,3.6423,3.6481,3.6499,3.6539,3.6611,3.6675,3.6681,3.6708,3.6738,3.6741,3.6601,3.6582,3.6564,3.6541,3.6743,3.6744,3.6886,3.6887,3.6888]},{"header":{"parameterUnit":"m.s-1","parameterCategory":1,"la1":30.2991,"la2":30.254,"lo1":-89.0895,"lo2":-89.0444,"dy":0.0017,"dx":0.0017,"nx":28,"ny":28,"refTime":"2024-08-12T21:00:00:Z","depth":0,"parameterNumber":3,"parameterNumberName":"V-component_of_WINDS"},"data":[0,0,0,0,0,0,0,0,0,0,0,0,0,0,0,0,0,0,0,0,0,0,0,0,0,0,0,0,0,0,0,0,0,0,0,0,0,0,0,0,0,0,0,0,0,0,0,0,0,0,0,0,0,0,0,0,0,0,-1.6473,-1.6474,0,-1.6554,-1.6555,-1.6556,-1.6567,-1.6566,-1.6566,-1.6565,-1.6648,-1.6651,-1.6653,0,0,0,0,0,0,0,0,0,0,0,0,0,-1.6331,-1.6333,-1.6473,-1.6474,-1.6475,-1.6554,-1.6555,-1.6556,-1.6567,-1.6566,-1.6565,-1.6565,-1.6647,-1.665,-1.6654,0,0,0,0,0,0,0,0,0,0,0,0,0,-1.64,-1.6334,-1.6473,-1.649,-1.6493,-1.6553,-1.6555,-1.6556,-1.6567,-1.6566,-1.6565,-1.6564,-1.6646,-1.665,-1.6654,-1.6703,0,0,-1.6668,-1.6669,0,0,0,0,0,0,0,0,-1.6396,-1.6405,-1.6487,-1.6489,-1.6492,-1.6549,-1.6535,-1.6605,-1.6568,-1.6539,-1.6565,-1.6564,-1.6616,-1.6623,-1.664,-1.6707,-1.6711,-1.6668,-1.6671,-1.6672,-1.6674,0,0,0,0,0,0,0,-1.6391,-1.6402,-1.6505,-1.6488,-1.6491,-1.6495,-1.6503,-1.6548,-1.6583,-1.6542,-1.6543,-1.6552,-1.6617,-1.6636,-1.6642,-1.6712,-1.6668,-1.6672,-1.6674,-1.6676,-1.6824,-1.6825,0,0,0,0,0,0,-1.6383,-1.6398,-1.6503,-1.6508,-1.644,-1.6498,-1.6508,-1.6532,-1.6582,-1.6589,-1.6553,-1.6552,-1.6629,-1.6637,-1.6645,-1.6706,-1.6672,-1.6676,-1.6679,-1.6823,-1.6824,-1.6826,0,0,0,0,0,0,-1.638,-1.6392,-1.6499,-1.6453,-1.6467,-1.6502,-1.6529,-1.6534,-1.6553,-1.6591,-1.6597,-1.6566,-1.6629,-1.6639,-1.6689,-1.6709,-1.6678,-1.6682,-1.6821,-1.6823,-1.6825,-1.6828,0,0,0,0,0,0,-1.6376,-1.6391,-1.641,-1.6453,-1.6469,-1.6541,-1.653,-1.6537,-1.656,-1.656,-1.6605,-1.6611,-1.6629,-1.6682,-1.6693,-1.6715,-1.6686,-1.6819,-1.6822,-1.6824,-1.6827,-1.683,-1.6833,0,0,0,0,0,-1.6371,-1.6408,-1.6411,-1.6423,-1.6493,-1.6542,-1.6552,-1.6571,-1.6562,-1.6581,-1.6606,-1.6609,-1.6705,-1.6687,-1.67,-1.6723,-1.6818,-1.6821,-1.6824,-1.6825,-1.6829,-1.6833,0,0,0,0,0,0,-1.6366,-1.6414,-1.6418,-1.6469,-1.6502,-1.6544,-1.6569,-1.6575,-1.6611,-1.6609,-1.6632,-1.6642,-1.6691,-1.6712,-1.6691,-1.6773,-1.6761,-1.6767,-1.6757,-1.6762,-1.6765,-1.6759,-1.6689,0,0,0,0,0,-1.6371,-1.6406,-1.6446,-1.6488,-1.6504,-1.6534,-1.6556,-1.6568,-1.6603,-1.6617,-1.6645,-1.6678,-1.6716,-1.674,-1.6777,-1.683,-1.684,-1.6852,-1.6855,-1.6858,-1.6862,-1.6892,-1.6898,-1.6835,-1.6835,-1.6835,0,0,-1.6381,-1.6412,-1.6433,-1.6488,-1.6514,-1.6551,-1.6545,-1.6584,-1.6612,-1.6623,-1.6671,-1.6693,-1.6732,-1.6784,-1.6808,-1.6803,-1.6882,-1.6862,-1.6863,-1.6867,-1.6896,-1.6902,-1.6907,-1.6837,-1.6837,-1.6837,0,0,-1.6419,-1.6445,-1.6483,-1.651,-1.655,-1.657,-1.6579,-1.6621,-1.6636,-1.6685,-1.6694,-1.6728,-1.6792,-1.682,-1.6842,-1.6891,-1.6896,-1.6903,-1.692,-1.6949,-1.6954,-1.6959,-1.6976,-1.6983,-1.6907,-1.6907,-1.6907,0,-1.6427,-1.6482,-1.6502,-1.6541,-1.6565,-1.6577,-1.6616,-1.6641,-1.6691,-1.6708,-1.6702,-1.6783,-1.681,-1.6869,-1.6881,-1.6899,-1.691,-1.6898,-1.6952,-1.6957,-1.6961,-1.6978,-1.6985,-1.6908,-1.6908,-1.6908,-1.6908,0,-1.649,-1.6528,-1.6554,-1.6602,-1.663,-1.6668,-1.6695,-1.672,-1.673,-1.6751,-1.6801,-1.6834,-1.6878,-1.6893,-1.6904,-1.6954,-1.6949,-1.6947,-1.6935,-1.6967,-1.6984,-1.6991,-1.6908,-1.6908,-1.6908,-1.6908,0,0,-1.6526,-1.6585,-1.6594,-1.6617,-1.6662,-1.6692,-1.6732,-1.6775,-1.6796,-1.6831,-1.6865,-1.692,-1.6918,-1.6944,-1.6958,-1.6983,-1.702,-1.6978,-1.6979,-1.6985,-1.7078,-1.7079,-1.7086,-1.7024,-1.7025,-1.7027,-1.7075,0,-1.6569,-1.6639,-1.6659,-1.6718,-1.6754,-1.6766,-1.6801,-1.6833,-1.6854,-1.6887,-1.691,-1.6949,-1.6944,-1.6959,-1.6985,-1.701,-1.7039,-1.7007,-1.7056,-1.7058,-1.7046,-1.7095,-1.7096,-1.714,-1.7081,-1.7082,-1.7083,0,-1.6628,-1.6664,-1.6727,-1.6768,-1.6784,-1.6815,-1.6856,-1.6888,-1.6925,-1.6938,-1.6967,-1.6979,-1.7021,-1.7007,-1.7066,-1.7044,-1.7066,-1.7081,-1.7083,-1.7088,-1.7072,-1.7101,-1.7154,-1.716,-1.7093,-1.7093,-1.7092,0,-1.6648,-1.6712,-1.6758,-1.6777,-1.6826,-1.6848,-1.6869,-1.6905,-1.693,-1.6966,-1.6983,-1.7024,-1.7046,-1.7078,-1.71,-1.7088,-1.7157,-1.7145,-1.717,-1.7169,-1.7183,-1.7182,-1.724,-1.7197,-1.7197,-1.7197,-1.7197,0,-1.6693,-1.6732,-1.6767,-1.6796,-1.6839,-1.6862,-1.6905,-1.6927,-1.6959,-1.6992,-1.7005,-1.7036,-1.7065,-1.71,-1.7118,-1.7164,-1.7174,-1.7186,-1.719,-1.7185,-1.7183,-1.7199,-1.7196,-1.7199,-1.7199,-1.7198,-1.7198,0,-1.6723,-1.6748,-1.6799,-1.6842,-1.6854,-1.6884,-1.6921,-1.695,-1.6971,-1.7013,-1.7024,-1.7058,-1.71,-1.7125,-1.7179,-1.7191,-1.7242,-1.7245,-1.7229,-1.7231,-1.7254,-1.7252,-1.7324,-1.7335,-1.7285,-1.7286,-1.7286,0,-1.675,-1.678,-1.6826,-1.6849,-1.6871,-1.6908,-1.6934,-1.6958,-1.6984,-1.7028,-1.7051,-1.7094,-1.713,-1.7197,-1.7226,-1.7267,-1.7271,-1.7294,-1.7278,-1.7271,-1.7272,-1.727,-1.7273,-1.7297,-1.7297,-1.7297,-1.7298,0,-1.6796,-1.6807,-1.6843,-1.6884,-1.6914,-1.6947,-1.698,-1.6999,-1.7028,-1.7057,-1.71,-1.7128,-1.7182,-1.7225,-1.7269,-1.7292,-1.73,-1.7303,-1.7311,-1.7305,-1.7295,-1.7301,-1.7237,-1.7301,-1.73,-1.73,-1.73,-1.73,-1.6825,-1.6852,-1.6889,-1.6929,-1.6956,-1.6987,-1.7016,-1.7041,-1.7077,-1.7123,-1.7136,-1.7181,-1.7218,-1.7278,-1.7302,-1.7338,-1.7335,-1.7346,-1.7349,-1.7351,-1.7352,-1.7289,-1.7346,-1.7346,-1.7346,-1.7346,-1.7346,0,-1.6871,-1.6896,-1.6932,-1.6978,-1.701,-1.7015,-1.7052,-1.7078,-1.7118,-1.7152,-1.7186,-1.7236,-1.7278,-1.7311,-1.7354,-1.7376,-1.7381,-1.7387,-1.7385,-1.7391,-1.7352,-1.7341,-1.7382,-1.7382,-1.7382,-1.7382,-1.7382,-1.7382,-1.6899,-1.6946,-1.6961,-1.7022,-1.7046,-1.709,-1.7111,-1.714,-1.7167,-1.7222,-1.7257,-1.7278,-1.7312,-1.7357,-1.7396,-1.7405,-1.742,-1.7425,-1.7434,-1.7397,-1.7393,-1.7389,-1.7379,-1.7428,-1.7428,-1.747,-1.747,-1.7471]}]]